0,13.5978, 24 Oct 2015, 00:00:33
30,13.5997, 24 Oct 2015, 00:01:04
100,13.6013, 24 Oct 2015, 00:01:34
130,13.6043, 24 Oct 2015, 00:02:04
200,13.6064, 24 Oct 2015, 00:02:34
230,13.6079, 24 Oct 2015, 00:03:03
300,13.6085, 24 Oct 2015, 00:03:34
330,13.6086, 24 Oct 2015, 00:04:04
400,13.6083, 24 Oct 2015, 00:04:34
430,13.6073, 24 Oct 2015, 00:05:04
500,13.6069, 24 Oct 2015, 00:05:33
530,13.606, 24 Oct 2015, 00:06:04
600,13.6056, 24 Oct 2015, 00:06:34
630,13.6045, 24 Oct 2015, 00:07:04
700,13.6031, 24 Oct 2015, 00:07:33
730,13.6021, 24 Oct 2015, 00:08:04
800,13.5999, 24 Oct 2015, 00:08:34
830,13.5977, 24 Oct 2015, 00:09:04
900,13.5962, 24 Oct 2015, 00:09:33
930,13.5946, 24 Oct 2015, 00:10:03
1000,13.5933, 24 Oct 2015, 00:10:34
1030,13.5922, 24 Oct 2015, 00:11:04
1100,13.5912, 24 Oct 2015, 00:11:33
1130,13.5906, 24 Oct 2015, 00:12:03
1200,13.5901, 24 Oct 2015, 00:12:34
1230,13.5885, 24 Oct 2015, 00:13:04
1300,13.5863, 24 Oct 2015, 00:13:34
1330,13.5839, 24 Oct 2015, 00:14:03
1400,13.5815, 24 Oct 2015, 00:14:33
1430,13.5788, 24 Oct 2015, 00:15:04
1500,13.577, 24 Oct 2015, 00:15:34
1530,13.5743, 24 Oct 2015, 00:16:03
1600,13.5716, 24 Oct 2015, 00:16:33
1630,13.5683, 24 Oct 2015, 00:17:04
1700,13.5643, 24 Oct 2015, 00:17:34
1730,13.5609, 24 Oct 2015, 00:18:04
1800,13.5578, 24 Oct 2015, 00:18:34
1830,13.5543, 24 Oct 2015, 00:19:04
1900,13.5515, 24 Oct 2015, 00:19:35
1930,13.5494, 24 Oct 2015, 00:20:04
2000,13.5469, 24 Oct 2015, 00:20:34
2030,13.5451, 24 Oct 2015, 00:21:04
2100,13.5432, 24 Oct 2015, 00:21:35
2130,13.542, 24 Oct 2015, 00:22:04
2200,13.5404, 24 Oct 2015, 00:22:34
2230,13.5396, 24 Oct 2015, 00:23:04
2300,13.5389, 24 Oct 2015, 00:23:35
2330,13.5391, 24 Oct 2015, 00:24:05
2400,13.5398, 24 Oct 2015, 00:24:34
2430,13.5406, 24 Oct 2015, 00:25:04
2500,13.5412, 24 Oct 2015, 00:25:34
2530,13.542, 24 Oct 2015, 00:26:05
2600,13.5434, 24 Oct 2015, 00:26:34
2630,13.544, 24 Oct 2015, 00:27:04
2700,13.5448, 24 Oct 2015, 00:27:34
2730,13.5461, 24 Oct 2015, 00:28:04
2800,13.5474, 24 Oct 2015, 00:28:34
2830,13.5481, 24 Oct 2015, 00:29:04
2900,13.5489, 24 Oct 2015, 00:29:34
2930,13.5488, 24 Oct 2015, 00:30:05
3000,13.5483, 24 Oct 2015, 00:30:34
3030,13.5475, 24 Oct 2015, 00:31:04
3100,13.5463, 24 Oct 2015, 00:31:34
3130,13.5454, 24 Oct 2015, 00:32:04
3200,13.5436, 24 Oct 2015, 00:32:34
3230,13.541, 24 Oct 2015, 00:33:04
3300,13.5378, 24 Oct 2015, 00:33:34
3330,13.5359, 24 Oct 2015, 00:34:04
3400,13.533, 24 Oct 2015, 00:34:34
3430,13.5298, 24 Oct 2015, 00:35:04
3500,13.5275, 24 Oct 2015, 00:35:34
3530,13.5249, 24 Oct 2015, 00:36:04
3600,13.5222, 24 Oct 2015, 00:36:35
3630,13.5197, 24 Oct 2015, 00:37:04
3700,13.5176, 24 Oct 2015, 00:37:34
3730,13.5155, 24 Oct 2015, 00:38:04
3800,13.5123, 24 Oct 2015, 00:38:33
3830,13.5096, 24 Oct 2015, 00:39:04
3900,13.5063, 24 Oct 2015, 00:39:34
3930,13.5039, 24 Oct 2015, 00:40:04
4000,13.5013, 24 Oct 2015, 00:40:33
4030,13.4993, 24 Oct 2015, 00:41:04
4100,13.4973, 24 Oct 2015, 00:41:34
4130,13.4952, 24 Oct 2015, 00:42:04
4200,13.4933, 24 Oct 2015, 00:42:34
4230,13.4919, 24 Oct 2015, 00:43:04
4300,13.491, 24 Oct 2015, 00:43:34
4330,13.49, 24 Oct 2015, 00:44:04
4400,13.4888, 24 Oct 2015, 00:44:34
4430,13.4889, 24 Oct 2015, 00:45:03
4500,13.4882, 24 Oct 2015, 00:45:34
4530,13.4879, 24 Oct 2015, 00:46:04
4600,13.4865, 24 Oct 2015, 00:46:34
4630,13.4856, 24 Oct 2015, 00:47:03
4700,13.4848, 24 Oct 2015, 00:47:34
4730,13.4845, 24 Oct 2015, 00:48:04
4800,13.4841, 24 Oct 2015, 00:48:34
4830,13.4852, 24 Oct 2015, 00:49:03
4900,13.4849, 24 Oct 2015, 00:49:33
4930,13.4851, 24 Oct 2015, 00:50:04
5000,13.4854, 24 Oct 2015, 00:50:34
5030,13.4861, 24 Oct 2015, 00:51:03
5100,13.4866, 24 Oct 2015, 00:51:33
5130,13.4872, 24 Oct 2015, 00:52:04
5200,13.4875, 24 Oct 2015, 00:52:34
5230,13.4881, 24 Oct 2015, 00:53:03
5300,13.4876, 24 Oct 2015, 00:53:33
5330,13.4886, 24 Oct 2015, 00:54:04
5400,13.4902, 24 Oct 2015, 00:54:34
5430,13.4911, 24 Oct 2015, 00:55:04
5500,13.4917, 24 Oct 2015, 00:55:33
5530,13.4923, 24 Oct 2015, 00:56:03
5600,13.4937, 24 Oct 2015, 00:56:34
5630,13.494, 24 Oct 2015, 00:57:04
5700,13.4945, 24 Oct 2015, 00:57:33
5730,13.4947, 24 Oct 2015, 00:58:04
5800,13.4945, 24 Oct 2015, 00:58:35
5830,13.4949, 24 Oct 2015, 00:59:04
5900,13.4948, 24 Oct 2015, 00:59:34
5930,13.4949, 24 Oct 2015, 01:00:04
10000,13.4961, 24 Oct 2015, 01:00:35
10030,13.4966, 24 Oct 2015, 01:01:05
10100,13.4965, 24 Oct 2015, 01:01:34
10130,13.4961, 24 Oct 2015, 01:02:04
10200,13.4964, 24 Oct 2015, 01:02:34
10230,13.4968, 24 Oct 2015, 01:03:05
10300,13.4976, 24 Oct 2015, 01:03:34
10330,13.4975, 24 Oct 2015, 01:04:04
10400,13.4969, 24 Oct 2015, 01:04:34
10430,13.4961, 24 Oct 2015, 01:05:04
10500,13.495, 24 Oct 2015, 01:05:35
10530,13.494, 24 Oct 2015, 01:06:04
10600,13.4925, 24 Oct 2015, 01:06:34
10630,13.4909, 24 Oct 2015, 01:07:04
10700,13.489, 24 Oct 2015, 01:07:35
10730,13.4869, 24 Oct 2015, 01:08:04
10800,13.4856, 24 Oct 2015, 01:08:34
10830,13.4831, 24 Oct 2015, 01:09:04
10900,13.4812, 24 Oct 2015, 01:09:34
10930,13.4799, 24 Oct 2015, 01:10:04
11000,13.4792, 24 Oct 2015, 01:10:34
11030,13.4789, 24 Oct 2015, 01:11:04
11100,13.4783, 24 Oct 2015, 01:11:34
11130,13.4774, 24 Oct 2015, 01:12:05
11200,13.4751, 24 Oct 2015, 01:12:34
11230,13.4739, 24 Oct 2015, 01:13:04
11300,13.472, 24 Oct 2015, 01:13:34
11330,13.4713, 24 Oct 2015, 01:14:04
11400,13.4702, 24 Oct 2015, 01:14:34
11430,13.469, 24 Oct 2015, 01:15:04
11500,13.4684, 24 Oct 2015, 01:15:34
11530,13.468, 24 Oct 2015, 01:16:04
11600,13.4683, 24 Oct 2015, 01:16:35
11630,13.4679, 24 Oct 2015, 01:17:04
11700,13.4667, 24 Oct 2015, 01:17:34
11730,13.4664, 24 Oct 2015, 01:18:04
11800,13.4662, 24 Oct 2015, 01:18:33
11830,13.4664, 24 Oct 2015, 01:19:04
11900,13.4662, 24 Oct 2015, 01:19:34
11930,13.4668, 24 Oct 2015, 01:20:04
12000,13.4664, 24 Oct 2015, 01:20:33
12030,13.4668, 24 Oct 2015, 01:21:04
12100,13.4682, 24 Oct 2015, 01:21:34
12130,13.4683, 24 Oct 2015, 01:22:04
12200,13.4684, 24 Oct 2015, 01:22:34
12230,13.4691, 24 Oct 2015, 01:23:03
12300,13.47, 24 Oct 2015, 01:23:34
12330,13.471, 24 Oct 2015, 01:24:04
12400,13.4726, 24 Oct 2015, 01:24:34
12430,13.4742, 24 Oct 2015, 01:25:03
12500,13.4759, 24 Oct 2015, 01:25:34
12530,13.4782, 24 Oct 2015, 01:26:04
12600,13.4799, 24 Oct 2015, 01:26:34
12630,13.4808, 24 Oct 2015, 01:27:04
12700,13.4815, 24 Oct 2015, 01:27:34
12730,13.4824, 24 Oct 2015, 01:28:04
12800,13.4825, 24 Oct 2015, 01:28:34
12830,13.4819, 24 Oct 2015, 01:29:03
12900,13.4814, 24 Oct 2015, 01:29:33
12930,13.4808, 24 Oct 2015, 01:30:04
13000,13.4801, 24 Oct 2015, 01:30:34
13030,13.4816, 24 Oct 2015, 01:31:03
13100,13.4828, 24 Oct 2015, 01:31:33
13130,13.4836, 24 Oct 2015, 01:32:04
13200,13.4842, 24 Oct 2015, 01:32:34
13230,13.484, 24 Oct 2015, 01:33:04
13300,13.4836, 24 Oct 2015, 01:33:33
13330,13.4826, 24 Oct 2015, 01:34:03
13400,13.4831, 24 Oct 2015, 01:34:34
13430,13.4841, 24 Oct 2015, 01:35:04
13500,13.4842, 24 Oct 2015, 01:35:33
13530,13.4832, 24 Oct 2015, 01:36:03
13600,13.482, 24 Oct 2015, 01:36:34
13630,13.4803, 24 Oct 2015, 01:37:04
13700,13.4786, 24 Oct 2015, 01:37:33
13730,13.4749, 24 Oct 2015, 01:38:03
13800,13.4719, 24 Oct 2015, 01:38:35
13830,13.4692, 24 Oct 2015, 01:39:05
13900,13.4656, 24 Oct 2015, 01:39:34
13930,13.4631, 24 Oct 2015, 01:40:04
14000,13.4618, 24 Oct 2015, 01:40:35
14030,13.461, 24 Oct 2015, 01:41:05
14100,13.4611, 24 Oct 2015, 01:41:34
14130,13.4612, 24 Oct 2015, 01:42:04
14200,13.4618, 24 Oct 2015, 01:42:34
14230,13.4629, 24 Oct 2015, 01:43:05
14300,13.4643, 24 Oct 2015, 01:43:34
14330,13.4661, 24 Oct 2015, 01:44:04
14400,13.4667, 24 Oct 2015, 01:44:34
14430,13.4665, 24 Oct 2015, 01:45:05
14500,13.4658, 24 Oct 2015, 01:45:35
14530,13.4651, 24 Oct 2015, 01:46:04
14600,13.4634, 24 Oct 2015, 01:46:34
14630,13.4617, 24 Oct 2015, 01:47:05
14700,13.4588, 24 Oct 2015, 01:47:35
14730,13.4534, 24 Oct 2015, 01:48:04
14800,13.4475, 24 Oct 2015, 01:48:34
14830,13.4441, 24 Oct 2015, 01:49:04
14900,13.4423, 24 Oct 2015, 01:49:34
14930,13.4424, 24 Oct 2015, 01:50:04
15000,13.4435, 24 Oct 2015, 01:50:34
15030,13.4448, 24 Oct 2015, 01:51:04
15100,13.4457, 24 Oct 2015, 01:51:35
15130,13.4469, 24 Oct 2015, 01:52:04
15200,13.4478, 24 Oct 2015, 01:52:34
15230,13.4487, 24 Oct 2015, 01:53:04
15300,13.4489, 24 Oct 2015, 01:53:35
15330,13.4482, 24 Oct 2015, 01:54:04
15400,13.4461, 24 Oct 2015, 01:54:34
15430,13.4433, 24 Oct 2015, 01:55:04
15500,13.4394, 24 Oct 2015, 01:55:34
15530,13.4341, 24 Oct 2015, 01:56:04
15600,13.4282, 24 Oct 2015, 01:56:34
15630,13.4225, 24 Oct 2015, 01:57:04
15700,13.4155, 24 Oct 2015, 01:57:34
15730,13.4101, 24 Oct 2015, 01:58:04
15800,13.4049, 24 Oct 2015, 01:58:34
15830,13.4, 24 Oct 2015, 01:59:04
15900,13.397, 24 Oct 2015, 01:59:34
15930,13.3965, 24 Oct 2015, 02:00:04
20000,13.3969, 24 Oct 2015, 02:00:34
20030,13.3977, 24 Oct 2015, 02:01:04
20100,13.3978, 24 Oct 2015, 02:01:34
20130,13.3986, 24 Oct 2015, 02:02:04
20200,13.4004, 24 Oct 2015, 02:02:34
20230,13.4013, 24 Oct 2015, 02:03:04
20300,13.4026, 24 Oct 2015, 02:03:34
20330,13.4036, 24 Oct 2015, 02:04:04
20400,13.4031, 24 Oct 2015, 02:04:33
20430,13.4033, 24 Oct 2015, 02:05:04
20500,13.4025, 24 Oct 2015, 02:05:34
20530,13.4019, 24 Oct 2015, 02:06:04
20600,13.4015, 24 Oct 2015, 02:06:34
20630,13.4006, 24 Oct 2015, 02:07:03
20700,13.3987, 24 Oct 2015, 02:07:34
20730,13.3968, 24 Oct 2015, 02:08:04
20800,13.3954, 24 Oct 2015, 02:08:34
20830,13.3934, 24 Oct 2015, 02:09:03
20900,13.3903, 24 Oct 2015, 02:09:34
20930,13.3875, 24 Oct 2015, 02:10:04
21000,13.3838, 24 Oct 2015, 02:10:34
21030,13.3798, 24 Oct 2015, 02:11:03
21100,13.3769, 24 Oct 2015, 02:11:33
21130,13.3737, 24 Oct 2015, 02:12:04
21200,13.3707, 24 Oct 2015, 02:12:34
21230,13.3676, 24 Oct 2015, 02:13:04
21300,13.3636, 24 Oct 2015, 02:13:33
21330,13.36, 24 Oct 2015, 02:14:04
21400,13.3577, 24 Oct 2015, 02:14:34
21430,13.3579, 24 Oct 2015, 02:15:04
21500,13.3599, 24 Oct 2015, 02:15:33
21530,13.3633, 24 Oct 2015, 02:16:03
21600,13.3672, 24 Oct 2015, 02:16:34
21630,13.3708, 24 Oct 2015, 02:17:04
21700,13.374, 24 Oct 2015, 02:17:34
21730,13.377, 24 Oct 2015, 02:18:03
21800,13.3786, 24 Oct 2015, 02:18:35
21830,13.3792, 24 Oct 2015, 02:19:05
21900,13.3801, 24 Oct 2015, 02:19:34
21930,13.3808, 24 Oct 2015, 02:20:04
22000,13.3824, 24 Oct 2015, 02:20:34
22030,13.3853, 24 Oct 2015, 02:21:05
22100,13.3879, 24 Oct 2015, 02:21:34
22130,13.3917, 24 Oct 2015, 02:22:04
22200,13.3951, 24 Oct 2015, 02:22:34
22230,13.3986, 24 Oct 2015, 02:23:05
22300,13.4012, 24 Oct 2015, 02:23:35
22330,13.4036, 24 Oct 2015, 02:24:04
22400,13.4059, 24 Oct 2015, 02:24:34
22430,13.4091, 24 Oct 2015, 02:25:05
22500,13.4122, 24 Oct 2015, 02:25:35
22530,13.4154, 24 Oct 2015, 02:26:04
22600,13.4173, 24 Oct 2015, 02:26:34
22630,13.4182, 24 Oct 2015, 02:27:04
22700,13.4209, 24 Oct 2015, 02:27:35
22730,13.425, 24 Oct 2015, 02:28:05
22800,13.4301, 24 Oct 2015, 02:28:34
22830,13.4345, 24 Oct 2015, 02:29:04
22900,13.438, 24 Oct 2015, 02:29:35
22930,13.4426, 24 Oct 2015, 02:30:04
23000,13.4449, 24 Oct 2015, 02:30:34
23030,13.4473, 24 Oct 2015, 02:31:04
23100,13.4495, 24 Oct 2015, 02:31:34
23130,13.4497, 24 Oct 2015, 02:32:04
23200,13.4489, 24 Oct 2015, 02:32:34
23230,13.4453, 24 Oct 2015, 02:33:04
23300,13.4411, 24 Oct 2015, 02:33:34
23330,13.4356, 24 Oct 2015, 02:34:05
23400,13.4305, 24 Oct 2015, 02:34:34
23430,13.4234, 24 Oct 2015, 02:35:04
23500,13.4171, 24 Oct 2015, 02:35:34
23530,13.4111, 24 Oct 2015, 02:36:05
23600,13.4067, 24 Oct 2015, 02:36:34
23630,13.4024, 24 Oct 2015, 02:37:04
23700,13.3983, 24 Oct 2015, 02:37:34
23730,13.3957, 24 Oct 2015, 02:38:04
23800,13.3938, 24 Oct 2015, 02:38:34
23830,13.392, 24 Oct 2015, 02:39:04
23900,13.3904, 24 Oct 2015, 02:39:34
23930,13.3889, 24 Oct 2015, 02:40:04
24000,13.3876, 24 Oct 2015, 02:40:34
24030,13.3856, 24 Oct 2015, 02:41:04
24100,13.3834, 24 Oct 2015, 02:41:34
24130,13.3819, 24 Oct 2015, 02:42:04
24200,13.3822, 24 Oct 2015, 02:42:33
24230,13.3829, 24 Oct 2015, 02:43:04
24300,13.3832, 24 Oct 2015, 02:43:34
24330,13.3835, 24 Oct 2015, 02:44:04
24400,13.3839, 24 Oct 2015, 02:44:33
24430,13.3838, 24 Oct 2015, 02:45:04
24500,13.3833, 24 Oct 2015, 02:45:34
24530,13.3824, 24 Oct 2015, 02:46:04
24600,13.3817, 24 Oct 2015, 02:46:34
24630,13.3808, 24 Oct 2015, 02:47:04
24700,13.3804, 24 Oct 2015, 02:47:34
24730,13.3804, 24 Oct 2015, 02:48:04
24800,13.3805, 24 Oct 2015, 02:48:33
24830,13.3804, 24 Oct 2015, 02:49:03
24900,13.3802, 24 Oct 2015, 02:49:34
24930,13.3803, 24 Oct 2015, 02:50:04
25000,13.3803, 24 Oct 2015, 02:50:33
25030,13.3791, 24 Oct 2015, 02:51:03
25100,13.3783, 24 Oct 2015, 02:51:34
25130,13.3783, 24 Oct 2015, 02:52:04
25200,13.3784, 24 Oct 2015, 02:52:34
25230,13.376, 24 Oct 2015, 02:53:03
25300,13.3714, 24 Oct 2015, 02:53:34
25330,13.3658, 24 Oct 2015, 02:54:04
25400,13.3605, 24 Oct 2015, 02:54:34
25430,13.3578, 24 Oct 2015, 02:55:03
25500,13.356, 24 Oct 2015, 02:55:33
25530,13.3558, 24 Oct 2015, 02:56:04
25600,13.3553, 24 Oct 2015, 02:56:34
25630,13.3535, 24 Oct 2015, 02:57:03
25700,13.3498, 24 Oct 2015, 02:57:33
25730,13.3454, 24 Oct 2015, 02:58:04
25800,13.3422, 24 Oct 2015, 02:58:34
25830,13.3376, 24 Oct 2015, 02:59:03
25900,13.3326, 24 Oct 2015, 02:59:33
25930,13.3302, 24 Oct 2015, 03:00:04
30000,13.3284, 24 Oct 2015, 03:00:34
30030,13.327, 24 Oct 2015, 03:01:03
30100,13.3257, 24 Oct 2015, 03:01:33
30130,13.3228, 24 Oct 2015, 03:02:03
30200,13.3204, 24 Oct 2015, 03:02:34
30230,13.3172, 24 Oct 2015, 03:03:04
30300,13.3124, 24 Oct 2015, 03:03:33
30330,13.3058, 24 Oct 2015, 03:04:03
30400,13.2979, 24 Oct 2015, 03:04:33
30430,13.2898, 24 Oct 2015, 03:05:04
30500,13.2831, 24 Oct 2015, 03:05:34
30530,13.278, 24 Oct 2015, 03:06:03
30600,13.2764, 24 Oct 2015, 03:06:33
30630,13.2765, 24 Oct 2015, 03:07:03
30700,13.2777, 24 Oct 2015, 03:07:34
30730,13.2791, 24 Oct 2015, 03:08:04
30800,13.2811, 24 Oct 2015, 03:08:34
30830,13.2824, 24 Oct 2015, 03:09:04
30900,13.2852, 24 Oct 2015, 03:09:35
30930,13.2881, 24 Oct 2015, 03:10:04
31000,13.2923, 24 Oct 2015, 03:10:34
31030,13.2978, 24 Oct 2015, 03:11:04
31100,13.304, 24 Oct 2015, 03:11:34
31130,13.3105, 24 Oct 2015, 03:12:05
31200,13.3169, 24 Oct 2015, 03:12:34
31230,13.3237, 24 Oct 2015, 03:13:04
31300,13.3304, 24 Oct 2015, 03:13:34
31330,13.3373, 24 Oct 2015, 03:14:05
31400,13.3432, 24 Oct 2015, 03:14:34
31430,13.347, 24 Oct 2015, 03:15:04
31500,13.3506, 24 Oct 2015, 03:15:34
31530,13.3517, 24 Oct 2015, 03:16:04
31600,13.3528, 24 Oct 2015, 03:16:35
31630,13.3532, 24 Oct 2015, 03:17:04
31700,13.3542, 24 Oct 2015, 03:17:34
31730,13.3557, 24 Oct 2015, 03:18:04
31800,13.3568, 24 Oct 2015, 03:18:33
31830,13.354, 24 Oct 2015, 03:19:04
31900,13.3483, 24 Oct 2015, 03:19:34
31930,13.3384, 24 Oct 2015, 03:20:04
32000,13.326, 24 Oct 2015, 03:20:34
32030,13.3134, 24 Oct 2015, 03:21:04
32100,13.3013, 24 Oct 2015, 03:21:34
32130,13.2902, 24 Oct 2015, 03:22:04
32200,13.2802, 24 Oct 2015, 03:22:34
32230,13.2705, 24 Oct 2015, 03:23:04
32300,13.2621, 24 Oct 2015, 03:23:34
32330,13.2569, 24 Oct 2015, 03:24:04
32400,13.2528, 24 Oct 2015, 03:24:34
32430,13.2505, 24 Oct 2015, 03:25:03
32500,13.2482, 24 Oct 2015, 03:25:34
32530,13.2471, 24 Oct 2015, 03:26:04
32600,13.2498, 24 Oct 2015, 03:26:34
32630,13.2547, 24 Oct 2015, 03:27:04
32700,13.2616, 24 Oct 2015, 03:27:34
32730,13.2683, 24 Oct 2015, 03:28:04
32800,13.274, 24 Oct 2015, 03:28:34
32830,13.2777, 24 Oct 2015, 03:29:03
32900,13.2797, 24 Oct 2015, 03:29:33
32930,13.2786, 24 Oct 2015, 03:30:04
33000,13.2734, 24 Oct 2015, 03:30:34
33030,13.2633, 24 Oct 2015, 03:31:04
33100,13.2509, 24 Oct 2015, 03:31:33
33130,13.2398, 24 Oct 2015, 03:32:04
33200,13.2335, 24 Oct 2015, 03:32:34
33230,13.2288, 24 Oct 2015, 03:33:04
33300,13.2259, 24 Oct 2015, 03:33:33
33330,13.2253, 24 Oct 2015, 03:34:03
33400,13.2296, 24 Oct 2015, 03:34:34
33430,13.2354, 24 Oct 2015, 03:35:04
33500,13.2409, 24 Oct 2015, 03:35:34
33530,13.2448, 24 Oct 2015, 03:36:03
33600,13.247, 24 Oct 2015, 03:36:34
33630,13.2472, 24 Oct 2015, 03:37:04
33700,13.2477, 24 Oct 2015, 03:37:34
33730,13.2491, 24 Oct 2015, 03:38:03
33800,13.2505, 24 Oct 2015, 03:38:33
33830,13.2517, 24 Oct 2015, 03:39:04
33900,13.2527, 24 Oct 2015, 03:39:34
33930,13.253, 24 Oct 2015, 03:40:03
34000,13.2555, 24 Oct 2015, 03:40:33
34030,13.259, 24 Oct 2015, 03:41:04
34100,13.2621, 24 Oct 2015, 03:41:34
34130,13.2657, 24 Oct 2015, 03:42:03
34200,13.2697, 24 Oct 2015, 03:42:33
34230,13.2771, 24 Oct 2015, 03:43:03
34300,13.2856, 24 Oct 2015, 03:43:34
34330,13.2949, 24 Oct 2015, 03:44:04
34400,13.3046, 24 Oct 2015, 03:44:33
34430,13.3148, 24 Oct 2015, 03:45:03
34500,13.3245, 24 Oct 2015, 03:45:34
34530,13.3332, 24 Oct 2015, 03:46:04
34600,13.3419, 24 Oct 2015, 03:46:33
34630,13.3492, 24 Oct 2015, 03:47:03
34700,13.3567, 24 Oct 2015, 03:47:34
34730,13.3628, 24 Oct 2015, 03:48:04
34800,13.3692, 24 Oct 2015, 03:48:34
34830,13.3743, 24 Oct 2015, 03:49:04
34900,13.3756, 24 Oct 2015, 03:49:34
34930,13.3762, 24 Oct 2015, 03:50:05
35000,13.3789, 24 Oct 2015, 03:50:34
35030,13.3816, 24 Oct 2015, 03:51:04
35100,13.3853, 24 Oct 2015, 03:51:34
35130,13.3887, 24 Oct 2015, 03:52:05
35200,13.3915, 24 Oct 2015, 03:52:34
35230,13.3936, 24 Oct 2015, 03:53:04
35300,13.3929, 24 Oct 2015, 03:53:34
35330,13.3865, 24 Oct 2015, 03:54:05
35400,13.3759, 24 Oct 2015, 03:54:34
35430,13.3643, 24 Oct 2015, 03:55:04
35500,13.3549, 24 Oct 2015, 03:55:34
35530,13.346, 24 Oct 2015, 03:56:04
35600,13.3373, 24 Oct 2015, 03:56:35
35630,13.3291, 24 Oct 2015, 03:57:04
35700,13.3224, 24 Oct 2015, 03:57:34
35730,13.3142, 24 Oct 2015, 03:58:04
35800,13.305, 24 Oct 2015, 03:58:34
35830,13.2941, 24 Oct 2015, 03:59:04
35900,13.2836, 24 Oct 2015, 03:59:34
35930,13.2732, 24 Oct 2015, 04:00:04
40000,13.2638, 24 Oct 2015, 04:00:33
40030,13.2511, 24 Oct 2015, 04:01:04
40100,13.2402, 24 Oct 2015, 04:01:34
40130,13.2335, 24 Oct 2015, 04:02:04
40200,13.2294, 24 Oct 2015, 04:02:34
40230,13.2269, 24 Oct 2015, 04:03:03
40300,13.2266, 24 Oct 2015, 04:03:34
40330,13.2271, 24 Oct 2015, 04:04:04
40400,13.2283, 24 Oct 2015, 04:04:34
40430,13.2309, 24 Oct 2015, 04:05:04
40500,13.2352, 24 Oct 2015, 04:05:34
40530,13.2395, 24 Oct 2015, 04:06:04
40600,13.2441, 24 Oct 2015, 04:06:34
40630,13.2485, 24 Oct 2015, 04:07:04
40700,13.2519, 24 Oct 2015, 04:07:34
40730,13.2549, 24 Oct 2015, 04:08:04
40800,13.2575, 24 Oct 2015, 04:08:34
40830,13.2603, 24 Oct 2015, 04:09:04
40900,13.2635, 24 Oct 2015, 04:09:34
40930,13.2669, 24 Oct 2015, 04:10:03
41000,13.2696, 24 Oct 2015, 04:10:34
41030,13.2713, 24 Oct 2015, 04:11:04
41100,13.2701, 24 Oct 2015, 04:11:34
41130,13.2675, 24 Oct 2015, 04:12:03
41200,13.2645, 24 Oct 2015, 04:12:34
41230,13.2606, 24 Oct 2015, 04:13:04
41300,13.2577, 24 Oct 2015, 04:13:34
41330,13.2534, 24 Oct 2015, 04:14:04
41400,13.2476, 24 Oct 2015, 04:14:33
41430,13.2422, 24 Oct 2015, 04:15:04
41500,13.2369, 24 Oct 2015, 04:15:34
41530,13.2312, 24 Oct 2015, 04:16:04
41600,13.2273, 24 Oct 2015, 04:16:33
41630,13.2248, 24 Oct 2015, 04:17:03
41700,13.2224, 24 Oct 2015, 04:17:34
41730,13.2201, 24 Oct 2015, 04:18:04
41800,13.2189, 24 Oct 2015, 04:18:33
41830,13.2192, 24 Oct 2015, 04:19:03
41900,13.2173, 24 Oct 2015, 04:19:34
41930,13.2131, 24 Oct 2015, 04:20:04
42000,13.2073, 24 Oct 2015, 04:20:33
42030,13.1995, 24 Oct 2015, 04:21:03
42100,13.1917, 24 Oct 2015, 04:21:33
42130,13.1837, 24 Oct 2015, 04:22:04
42200,13.1772, 24 Oct 2015, 04:22:34
42230,13.1716, 24 Oct 2015, 04:23:03
42300,13.1654, 24 Oct 2015, 04:23:33
42330,13.159, 24 Oct 2015, 04:24:04
42400,13.154, 24 Oct 2015, 04:24:34
42430,13.1486, 24 Oct 2015, 04:25:03
42500,13.1439, 24 Oct 2015, 04:25:33
42530,13.1401, 24 Oct 2015, 04:26:03
42600,13.1396, 24 Oct 2015, 04:26:34
42630,13.1423, 24 Oct 2015, 04:27:04
42700,13.1472, 24 Oct 2015, 04:27:33
42730,13.1535, 24 Oct 2015, 04:28:03
42800,13.16, 24 Oct 2015, 04:28:35
42830,13.1642, 24 Oct 2015, 04:29:04
42900,13.1682, 24 Oct 2015, 04:29:34
42930,13.1696, 24 Oct 2015, 04:30:04
43000,13.1705, 24 Oct 2015, 04:30:34
43030,13.1713, 24 Oct 2015, 04:31:05
43100,13.1732, 24 Oct 2015, 04:31:34
43130,13.1749, 24 Oct 2015, 04:32:04
43200,13.1755, 24 Oct 2015, 04:32:34
43230,13.1756, 24 Oct 2015, 04:33:04
43300,13.1735, 24 Oct 2015, 04:33:35
43330,13.1683, 24 Oct 2015, 04:34:04
43400,13.1631, 24 Oct 2015, 04:34:34
43430,13.1574, 24 Oct 2015, 04:35:04
43500,13.151, 24 Oct 2015, 04:35:35
43530,13.144, 24 Oct 2015, 04:36:04
43600,13.1366, 24 Oct 2015, 04:36:34
43630,13.1288, 24 Oct 2015, 04:37:04
43700,13.1215, 24 Oct 2015, 04:37:34
43730,13.1151, 24 Oct 2015, 04:38:05
43800,13.1086, 24 Oct 2015, 04:38:34
43830,13.1007, 24 Oct 2015, 04:39:04
43900,13.0929, 24 Oct 2015, 04:39:34
43930,13.0851, 24 Oct 2015, 04:40:03
44000,13.077, 24 Oct 2015, 04:40:34
44030,13.0686, 24 Oct 2015, 04:41:04
44100,13.0616, 24 Oct 2015, 04:41:34
44130,13.0552, 24 Oct 2015, 04:42:04
44200,13.0474, 24 Oct 2015, 04:42:34
44230,13.0402, 24 Oct 2015, 04:43:04
44300,13.0335, 24 Oct 2015, 04:43:34
44330,13.0289, 24 Oct 2015, 04:44:04
44400,13.0262, 24 Oct 2015, 04:44:34
44430,13.0252, 24 Oct 2015, 04:45:04
44500,13.0279, 24 Oct 2015, 04:45:34
44530,13.0323, 24 Oct 2015, 04:46:04
44600,13.0376, 24 Oct 2015, 04:46:34
44630,13.0431, 24 Oct 2015, 04:47:04
44700,13.0477, 24 Oct 2015, 04:47:34
44730,13.0514, 24 Oct 2015, 04:48:04
44800,13.0533, 24 Oct 2015, 04:48:34
44830,13.0541, 24 Oct 2015, 04:49:04
44900,13.0536, 24 Oct 2015, 04:49:33
44930,13.0506, 24 Oct 2015, 04:50:04
45000,13.0484, 24 Oct 2015, 04:50:34
45030,13.0446, 24 Oct 2015, 04:51:04
45100,13.0393, 24 Oct 2015, 04:51:34
45130,13.0338, 24 Oct 2015, 04:52:03
45200,13.0301, 24 Oct 2015, 04:52:34
45230,13.0272, 24 Oct 2015, 04:53:04
45300,13.0243, 24 Oct 2015, 04:53:34
45330,13.02, 24 Oct 2015, 04:54:04
45400,13.0131, 24 Oct 2015, 04:54:33
45430,13.0047, 24 Oct 2015, 04:55:04
45500,12.9974, 24 Oct 2015, 04:55:34
45530,12.9929, 24 Oct 2015, 04:56:04
45600,12.9901, 24 Oct 2015, 04:56:33
45630,12.9863, 24 Oct 2015, 04:57:04
45700,12.9822, 24 Oct 2015, 04:57:34
45730,12.9785, 24 Oct 2015, 04:58:04
45800,12.9749, 24 Oct 2015, 04:58:33
45830,12.9704, 24 Oct 2015, 04:59:04
45900,12.9678, 24 Oct 2015, 04:59:34
45930,12.9651, 24 Oct 2015, 05:00:04
50000,12.9641, 24 Oct 2015, 05:00:33
50030,12.9647, 24 Oct 2015, 05:01:03
50100,12.9663, 24 Oct 2015, 05:01:34
50130,12.9684, 24 Oct 2015, 05:02:04
50200,12.9704, 24 Oct 2015, 05:02:33
50230,12.9729, 24 Oct 2015, 05:03:03
50300,12.9753, 24 Oct 2015, 05:03:34
50330,12.9781, 24 Oct 2015, 05:04:04
50400,12.9803, 24 Oct 2015, 05:04:34
50430,12.9838, 24 Oct 2015, 05:05:03
50500,12.9904, 24 Oct 2015, 05:05:33
50530,12.9994, 24 Oct 2015, 05:06:04
50600,13.0078, 24 Oct 2015, 05:06:34
50630,13.0163, 24 Oct 2015, 05:07:03
50700,13.0243, 24 Oct 2015, 05:07:33
50730,13.0309, 24 Oct 2015, 05:08:03
50800,13.0358, 24 Oct 2015, 05:08:35
50830,13.0374, 24 Oct 2015, 05:09:04
50900,13.038, 24 Oct 2015, 05:09:34
50930,13.0346, 24 Oct 2015, 05:10:04
51000,13.0292, 24 Oct 2015, 05:10:34
51030,13.0219, 24 Oct 2015, 05:11:05
51100,13.0124, 24 Oct 2015, 05:11:35
51130,13.0033, 24 Oct 2015, 05:12:04
51200,12.9953, 24 Oct 2015, 05:12:34
51230,12.989, 24 Oct 2015, 05:13:04
51300,12.9834, 24 Oct 2015, 05:13:35
51330,12.98, 24 Oct 2015, 05:14:04
51400,12.9779, 24 Oct 2015, 05:14:34
51430,12.9747, 24 Oct 2015, 05:15:04
51500,12.9728, 24 Oct 2015, 05:15:35
51530,12.9743, 24 Oct 2015, 05:16:04
51600,12.9786, 24 Oct 2015, 05:16:34
51630,12.985, 24 Oct 2015, 05:17:04
51700,12.9895, 24 Oct 2015, 05:17:34
51730,12.9931, 24 Oct 2015, 05:18:05